Simultaneous Nadir Overpasses (SNOs) Predictions

Prediction of SNOs between FY3D and METOP-C Satellite Orbit:

Table of predicted SNOs for the next 14.0 days since TLE Epoch: 3/29/2025
Index Date (FY3D) Time (FY3D) Lat,Lon (FY3D) SZA (FY3D ) Date (METOP-C) Time (METOP-C) Lat,Lon (METOP-C) SZA (METOP-C ) Distance(km) Time Diff (sec)
1 03/29/2025 03:55:30 76.74, 123.78 73.21 03/29/2025 03:55:59 76.73, 123.80 73.21 0.74 29
2 03/29/2025 04:46:14 -76.74, -68.91 106.81 03/29/2025 04:46:41 -76.73, -68.88 106.82 1.23 27
3 03/29/2025 05:36:59 76.71, 98.53 73.15 03/29/2025 05:37:21 76.71, 98.38 73.16 3.65 22
4 03/29/2025 06:27:43 -76.71, -94.17 106.86 03/29/2025 06:28:03 -76.71, -94.30 106.86 3.46 20
5 03/29/2025 07:18:29 76.72, 73.10 73.14 03/29/2025 07:18:42 76.74, 73.14 73.16 2.04 13
6 03/29/2025 08:09:13 -76.72,-119.60 106.88 03/29/2025 08:09:24 -76.73,-119.55 106.87 1.68 11
7 03/29/2025 08:59:59 76.73, 47.67 73.13 03/29/2025 09:00:04 76.72, 47.72 73.11 2.54 5
8 03/29/2025 09:50:43 -76.74,-145.03 106.89 03/29/2025 09:50:46 -76.71,-144.96 106.91 3.09 3
9 03/29/2025 10:41:28 76.71, 22.41 73.07 03/29/2025 10:41:26 76.69, 22.30 73.06 3.02 2
10 03/29/2025 11:32:12 -76.71,-170.28 106.95 03/29/2025 11:32:08 -76.69,-170.38 106.96 3.13 4
11 03/29/2025 12:22:58 76.72, -3.02 73.06 03/29/2025 12:22:47 76.72, -2.94 73.06 1.89 11
12 03/29/2025 13:13:42 -76.72, 164.29 106.96 03/29/2025 13:13:29 -76.72, 164.37 106.96 2.12 13
13 03/29/2025 14:04:27 76.69, -28.27 73.00 03/29/2025 14:04:09 76.70, -28.36 73.01 2.53 18
14 03/29/2025 14:55:11 -76.69, 139.04 107.02 03/29/2025 14:54:51 -76.70, 138.95 107.01 2.18 20
15 03/29/2025 15:45:57 76.70, -53.70 72.99 03/29/2025 15:45:30 76.72, -53.61 73.01 3.19 27
16 03/29/2025 16:36:41 -76.71, 113.61 107.03 03/29/2025 16:36:12 -76.72, 113.71 107.01 3.00 29
17 03/29/2025 17:27:27 76.72, -79.13 72.97 03/29/2025 17:26:52 76.70, -79.02 72.96 3.19 35
18 03/29/2025 18:18:10 -76.68, 88.35 107.08 03/29/2025 18:17:34 -76.70, 88.29 107.06 3.03 36
19 03/29/2025 19:08:55 76.69,-104.38 72.92 03/29/2025 19:08:13 76.68,-104.44 72.91 1.69 42
20 03/29/2025 19:59:39 -76.69, 62.93 107.10 03/29/2025 19:58:55 -76.68, 62.87 107.11 1.83 44
21 03/29/2025 20:50:25 76.70,-129.81 72.91 03/29/2025 20:49:34 76.71,-129.69 72.91 3.20 51
22 03/29/2025 21:41:09 -76.71, 37.50 107.11 03/29/2025 21:40:16 -76.70, 37.63 107.11 3.39 53
23 03/29/2025 22:31:54 76.67,-155.07 72.85 03/29/2025 22:30:56 76.69,-155.11 72.86 1.72 58
24 03/29/2025 23:22:38 -76.68, 12.24 107.17 03/29/2025 23:21:38 -76.68, 12.21 107.16 1.14 60
25 03/30/2025 00:13:24 76.69, 179.50 72.84 03/30/2025 00:12:18 76.67, 179.48 72.81 2.59 66
26 03/30/2025 01:04:08 -76.69, -13.19 107.18 03/30/2025 01:03:00 -76.66, -13.21 107.21 3.07 68
27 03/30/2025 01:54:53 76.66, 154.25 72.78 03/30/2025 01:53:39 76.69, 154.23 72.81 3.51 74
28 03/30/2025 02:45:37 -76.66, -38.44 107.24 03/30/2025 02:44:22 -76.64, -38.62 107.26 5.08 75
29 03/30/2025 03:36:16 76.37, 130.03 72.47 03/30/2025 03:35:08 76.35, 127.64 72.44 62.50 68
30 03/30/2025 04:26:58 -76.28, -62.34 107.63 03/30/2025 04:25:51 -76.31, -65.20 107.63 75.39 67



Historial Predications of SNOs between FY3D and METOP-C
